PSLV R/B, 46915

Orbit data source: Space-Track

PSLV R/B, 46915 is space debris in LEO originally from a launch on Sat, 07 Nov 2020 UTC launched from the Sirharikota (SRI). Debris objects in space refer to the collection of defunct objects orbiting the Earth. Examples of debris include non-operational satellites, rocket bodies, and fragments generated from explosions, collisions, or faulty payload assembly.

Loading next visibility...
PSLV R/B details
Identifier
46915, 2020-081L
Orbit
LEO
Last TLE update16 hours ago
Origin
Flag of INISRO (IN / IND)
ManufacturerVSSC/LPSC
MissionSpacecraft
Bus & MotorPS-4DL, Unknown motor
Mass920 kg wet, 920 kg dry
Launch date (UTC)
2020-11-07 (4 years ago)
Launch vehicleUnknown
Launch site
Sirharikota (SRI)
Object type
Payload
Rocket body
Debris
Shape & HBRCyl + Cyl + 2 Nozzle, Unknown HBR
Radar Cross Section10.342 m², Large (>1 m²)

Expand to show TLE details & history

TLE from 16 hours ago
0 PSLV R/B
1 46915U 20081L   24348.50881894  .00012298  00000-0  49914-3 0  9992
2 46915  36.8469  62.3124 0029791 250.4946 109.2582 15.23586481226649
Epoch: 2024-12-13T12:12Z
Definitive object data (Epoch: 2024-12-13T12:12:41.956Z)
Latitude-0.00004°
Longitude156.46375°
Altitude500.942 km
Speed7.612 km/s
True Right ascension04h 09m 14s
True Declination0° 00' 00"
Sunlit
Object was in full shadow at TLE epoch
Visualization TLE readout
Latitude24.68899°
Longitude-65.31397°
Altitude504.377 km
Speed7.611 km/s
Apparent Right ascension14h 07m 14s
Apparent Declination-6° 21' 31"
Sunlit
Object is in daylight
Visualization observer readout
Local Sidereal Time03:05:05
Azimuth24.988° NE
Elevation-54.016°
Doppler factor1
Orbital elements
Apogee altitude518.474 km
Perigee altitude477.505 km
Semi-major axis6,876.127 km
Eccentricity0.0029791
Inclination36.8469°
RAAN62.3124°
Arg. of periapsis250.4946°
True anomaly109.58008°
Mean anomaly109.2582°
Eccentric anomaly109.41918°
Mean motion3.80651 °/min
BSTAR0.00049914
Orbital period94.57 mins
Loading maneuver chart data...
Loading historical data...
Loading historical data...
Loading historical data...
Loading historical data...
Loading historical data...
Loading historical data...
Loading historical data...

PSLV R/B Visibility forecast

Observer location: undefined°, undefined

Span
Click to sort rows by Start time (UTC) header in descending order
Start Az.
Max El. time (UTC)
Max El. Az.
Max El.
End time (UTC)
End Az.
6 mins2024-12-14 08:53:11.154Z214.914° SW2024-12-14 08:56:11.154Z162.877° S23.712°2024-12-14 08:59:11.154Z105.567° ESE
6 mins2024-12-14 10:33:11.154Z243.504° WSW2024-12-14 10:35:11.154Z201.631° SSW36.513°2024-12-14 10:39:11.154Z99.269° ESE
5 mins2024-12-14 12:13:11.154Z250.111° W2024-12-14 12:15:11.154Z187.74° SSW35.469°2024-12-14 12:18:11.154Z120.581° SE
4 mins2024-12-14 13:53:11.154Z228.977° WSW2024-12-14 13:54:11.154Z209.013° SW18.446°2024-12-14 13:57:11.154Z158.408° S
|